QPF
0.02 0.01 0.01 0.01 0.01 0.01 0.01 0.01 0.00 0.00 0.00 0.00 0.00 0.01 0.01 0.02 0.02 0.02 0.02 0.03 0.02 0.01 0.01 0.01 0.01 0.02 0.02 0.02 0.02 0.01 0.01 0.01 0.02 0.02 0.03 0.05 0.07 0.08 0.07 0.07 0.07 0.05 0.04 0.03
0.02 0.02 0.01 0.00 0.00 0.00 0.00 0.00 0.00 0.00 0.00 0.00 0.01 0.02 0.02 0.02 0.02 0.02 0.03 0.03 0.03 0.02 0.02 0.02 0.01 0.02 0.02 0.03 0.02 0.01 0.01 0.01 0.02 0.02 0.02 0.03 0.05 0.06 0.07 0.06 0.06 0.05 0.04 0.03
0.02 0.03 0.03 0.01 0.01 0.01 0.00 0.00 0.00 0.00 0.00 0.01 0.01 0.01 0.02 0.02 0.02 0.02 0.02 0.02 0.03 0.02 0.01 0.01 0.01 0.01 0.02 0.02 0.02 0.02 0.02 0.02 0.02 0.02 0.02 0.02 0.02 0.04 0.05 0.06 0.05 0.04 0.03 0.03
0.02 0.02 0.03 0.02 0.01 0.01 0.01 0.01 0.01 0.01 0.01 0.01 0.02 0.01 0.01 0.01 0.02 0.02 0.02 0.02 0.01 0.01 0.01 0.01 0.02 0.02 0.03 0.02 0.02 0.02 0.02 0.02 0.02 0.02 0.02 0.01 0.01 0.02 0.02 0.04 0.05 0.05 0.04 0.03
0.01 0.01 0.01 0.01 0.01 0.01 0.01 0.01 0.01 0.01 0.01 0.01 0.02 0.01 0.01 0.01 0.02 0.02 0.01 0.01 0.01 0.01 0.02 0.03 0.03 0.03 0.03 0.02 0.03 0.04 0.02 0.03 0.03 0.03 0.03 0.01 0.01 0.01 0.01 0.01 0.01 0.02 0.03 0.03
0.02 0.01 0.01 0.01 0.01 0.01 0.01 0.01 0.01 0.01 0.01 0.02 0.02 0.02 0.02 0.01 0.01 0.01 0.01 0.01 0.01 0.02 0.02 0.03 0.04 0.04 0.03 0.02 0.02 0.03 0.03 0.03 0.04 0.04 0.02 0.01 0.01 0.01 0.01 0.01 0.01 0.00 0.01 0.02
0.02 0.02 0.02 0.01 0.02 0.02 0.02 0.02 0.01 0.01 0.01 0.02 0.03 0.02 0.02 0.02 0.02 0.01 0.01 0.01 0.01 0.02 0.03 0.03 0.03 0.03 0.03 0.03 0.02 0.02 0.03 0.03 0.03 0.03 0.02 0.02 0.01 0.01 0.00 0.00 0.00 0.01 0.01 0.00
0.01 0.02 0.02 0.02 0.02 0.05 0.04 0.03 0.02 0.02 0.01 0.02 0.02 0.02 0.02 0.02 0.02 0.01 0.01 0.02 0.03 0.05 0.04 0.04 0.04 0.04 0.04 0.04 0.03 0.03 0.03 0.02 0.03 0.02 0.02 0.02 0.01 0.01 0.00 0.00 0.00 0.01 0.00 0.00
0.01 0.02 0.02 0.03 0.03 0.03 0.03 0.03 0.02 0.02 0.03 0.03 0.02 0.02 0.02 0.02 0.02 0.02 0.03 0.03 0.03 0.07 0.08 0.06 0.05 0.05 0.05 0.05 0.04 0.03 0.02 0.02 0.02 0.02 0.02 0.01 0.01 0.01 0.00 0.00 0.00 0.00 0.00 0.00
0.02 0.01 0.01 0.02 0.03 0.03 0.03 0.03 0.03 0.03 0.04 0.03 0.03 0.02 0.01 0.01 0.01 0.02 0.02 0.03 0.03 0.04 0.05 0.04 0.05 0.06 0.06 0.05 0.04 0.03 0.03 0.02 0.02 0.02 0.01 0.01 0.01 0.01 0.01 0.00 0.00 0.00 0.00 0.00
0.02 0.02 0.02 0.02 0.03 0.03 0.03 0.03 0.03 0.03 0.03 0.02 0.03 0.03 0.02 0.02 0.02 0.02 0.03 0.03 0.03 0.03 0.03 0.03 0.03 0.04 0.04 0.05 0.04 0.04 0.03 0.03 0.02 0.01 0.01 0.01 0.01 0.00 0.00 0.00 0.00 0.00 0.00 0.00
0.02 0.02 0.02 0.02 0.02 0.02 0.03 0.04 0.05 0.05 0.04 0.03 0.03 0.02 0.02 0.03 0.03 0.03 0.04 0.04 0.04 0.04 0.04 0.03 0.03 0.03 0.04 0.04 0.03 0.03 0.03 0.03 0.02 0.02 0.01 0.01 0.01 0.01 0.01 0.00 0.00 0.00 0.00 0.00
0.03 0.02 0.02 0.01 0.02 0.03 0.05 0.09 0.09 0.09 0.06 0.06 0.05 0.03 0.03 0.04 0.03 0.03 0.04 0.03 0.03 0.03 0.04 0.04 0.03 0.03 0.03 0.04 0.03 0.03 0.02 0.03 0.02 0.02 0.02 0.01 0.01 0.01 0.01 0.01 0.00 0.00 0.00 0.00
0.02 0.02 0.01 0.02 0.04 0.05 0.08 0.13 0.12 0.08 0.06 0.11 0.09 0.04 0.02 0.02 0.03 0.04 0.03 0.02 0.02 0.02 0.02 0.02 0.03 0.03 0.02 0.02 0.02 0.02 0.02 0.03 0.03 0.02 0.01 0.01 0.01 0.01 0.01 0.01 0.01 0.00 0.00 0.01
0.02 0.02 0.02 0.02 0.03 0.04 0.05 0.08 0.10 0.08 0.06 0.09 0.08 0.06 0.05 0.04 0.03 0.04 0.03 0.02 0.02 0.01 0.01 0.01 0.01 0.01 0.02 0.02 0.02 0.02 0.02 0.03 0.03 0.02 0.01 0.01 0.01 0.02 0.02 0.02 0.02 0.01 0.01 0.01
0.02 0.02 0.02 0.01 0.01 0.01 0.02 0.02 0.04 0.04 0.04 0.04 0.04 0.05 0.05 0.05 0.04 0.03 0.03 0.02 0.02 0.02 0.01 0.01 0.01 0.01 0.02 0.02 0.02 0.02 0.02 0.02 0.03 0.03 0.02 0.02 0.02 0.02 0.03 0.03 0.03 0.03 0.02 0.01
0.02 0.02 0.02 0.02 0.02 0.02 0.02 0.03 0.03 0.03 0.02 0.02 0.02 0.02 0.03 0.04 0.03 0.02 0.01 0.01 0.01 0.01 0.01 0.02 0.02 0.02 0.02 0.03 0.02 0.02 0.03 0.03 0.04 0.04 0.03 0.03 0.04 0.03 0.03 0.03 0.04 0.03 0.02 0.01
0.02 0.02 0.01 0.01 0.01 0.02 0.02 0.02 0.03 0.02 0.01 0.01 0.01 0.01 0.02 0.03 0.03 0.01 0.01 0.01 0.00 0.01 0.01 0.01 0.01 0.02 0.03 0.04 0.03 0.03 0.03 0.03 0.03 0.03 0.03 0.03 0.03 0.03 0.03 0.03 0.03 0.03 0.03 0.02
0.02 0.02 0.01 0.01 0.01 0.01 0.01 0.02 0.03 0.02 0.01 0.00 0.01 0.01 0.01 0.02 0.03 0.01 0.01 0.01 0.00 0.00 0.00 0.01 0.01 0.03 0.05 0.06 0.06 0.05 0.04 0.03 0.02 0.02 0.02 0.02 0.02 0.02 0.03 0.03 0.02 0.03 0.03 0.01
0.01 0.01 0.01 0.01 0.01 0.01 0.01 0.01 0.01 0.01 0.01 0.00 0.01 0.01 0.01 0.02 0.02 0.01 0.01 0.01 0.01 0.01 0.00 0.01 0.01 0.02 0.03 0.05 0.06 0.05 0.04 0.04 0.03 0.02 0.02 0.02 0.02 0.02 0.02 0.02 0.01 0.03 0.03 0.01
0.02 0.01 0.01 0.01 0.01 0.01 0.01 0.01 0.01 0.01 0.01 0.01 0.01 0.01 0.01 0.02 0.02 0.01 0.01 0.01 0.01 0.01 0.01 0.01 0.01 0.02 0.03 0.03 0.03 0.03 0.03 0.03 0.03 0.02 0.02 0.02 0.02 0.02 0.02 0.02 0.02 0.01 0.02 0.01
0.01 0.01 0.01 0.01 0.01 0.01 0.01 0.01 0.01 0.02 0.02 0.01 0.01 0.01 0.01 0.03 0.02 0.02 0.02 0.01 0.01 0.02 0.03 0.03 0.03 0.02 0.02 0.02 0.02 0.01 0.01 0.02 0.02 0.02 0.02 0.02 0.02 0.02 0.02 0.03 0.03 0.02 0.01 0.01
0.01 0.01 0.01 0.01 0.01 0.01 0.01 0.01 0.01 0.02 0.02 0.02 0.01 0.01 0.01 0.02 0.02 0.02 0.02 0.02 0.02 0.03 0.04 0.04 0.04 0.03 0.03 0.02 0.02 0.02 0.01 0.02 0.02 0.02 0.02 0.02 0.02 0.02 0.02 0.02 0.02 0.02 0.02 0.02
0.01 0.01 0.01 0.01 0.01 0.01 0.01 0.02 0.03 0.03 0.02 0.02 0.02 0.02 0.01 0.02 0.02 0.02 0.02 0.02 0.02 0.03 0.04 0.03 0.04 0.04 0.04 0.02 0.02 0.01 0.01 0.01 0.02 0.02 0.02 0.03 0.02 0.02 0.02 0.02 0.02 0.02 0.01 0.01
0.01 0.01 0.02 0.02 0.03 0.03 0.03 0.03 0.04 0.04 0.03 0.02 0.02 0.02 0.01 0.02 0.02 0.02 0.01 0.01 0.01 0.02 0.02 0.03 0.03 0.05 0.04 0.03 0.02 0.02 0.01 0.01 0.01 0.02 0.02 0.02 0.02 0.02 0.02 0.02 0.02 0.02 0.01 0.01
0.03 0.02 0.02 0.02 0.04 0.04 0.02 0.02 0.02 0.02 0.02 0.02 0.02 0.01 0.02 0.02 0.02 0.02 0.01 0.01 0.02 0.02 0.02 0.03 0.04 0.05 0.06 0.06 0.05 0.04 0.03 0.02 0.02 0.02 0.02 0.02 0.02 0.02 0.03 0.02 0.02 0.02 0.02 0.02
0.03 0.02 0.02 0.02 0.03 0.03 0.02 0.02 0.02 0.02 0.01 0.01 0.01 0.01 0.01 0.01 0.01 0.01 0.01 0.01 0.01 0.02 0.02 0.02 0.03 0.04 0.06 0.07 0.06 0.05 0.04 0.03 0.03 0.03 0.04 0.04 0.04 0.05 0.05 0.04 0.03 0.03 0.02 0.02
MSLP
1005.28 1005.72 1006.03 1006.22 1006.30 1006.29 1006.24 1006.18 1006.16 1006.18 1006.27 1006.42 1006.61 1006.82 1007.01 1007.16 1007.25 1007.29 1007.29 1007.28 1007.29 1007.37 1007.54 1007.82 1008.20 1008.66 1009.16 1009.66 1010.11 1010.47 1010.71 1010.83 1010.83 1010.75 1010.62 1010.48 1010.35 1010.25 1010.20 1010.18 1010.18 1010.17 1010.14 1010.07
1004.94 1005.31 1005.52 1005.58 1005.53 1005.42 1005.31 1005.25 1005.28 1005.44 1005.71 1006.09 1006.52 1006.97 1007.37 1007.69 1007.90 1008.00 1008.02 1007.98 1007.95 1007.96 1008.06 1008.27 1008.60 1009.01 1009.47 1009.92 1010.33 1010.63 1010.82 1010.88 1010.83 1010.69 1010.50 1010.31 1010.14 1010.00 1009.91 1009.84 1009.80 1009.75 1009.67 1009.56
1004.68 1004.98 1005.11 1005.10 1004.97 1004.80 1004.67 1004.62 1004.72 1004.97 1005.39 1005.94 1006.56 1007.18 1007.74 1008.19 1008.49 1008.65 1008.70 1008.66 1008.60 1008.58 1008.65 1008.81 1009.09 1009.45 1009.85 1010.25 1010.59 1010.83 1010.95 1010.95 1010.84 1010.65 1010.41 1010.17 1009.95 1009.77 1009.62 1009.51 1009.40 1009.27 1009.13 1008.95
1004.57 1004.81 1004.89 1004.83 1004.67 1004.49 1004.36 1004.35 1004.50 1004.84 1005.35 1006.01 1006.73 1007.46 1008.12 1008.65 1009.02 1009.23 1009.30 1009.29 1009.23 1009.20 1009.25 1009.38 1009.61 1009.92 1010.26 1010.59 1010.86 1011.02 1011.07 1011.00 1010.83 1010.59 1010.31 1010.02 1009.76 1009.53 1009.33 1009.14 1008.95 1008.74 1008.51 1008.24
1004.63 1004.83 1004.88 1004.80 1004.65 1004.48 1004.39 1004.42 1004.62 1005.00 1005.57 1006.27 1007.04 1007.80 1008.50 1009.06 1009.47 1009.71 1009.81 1009.82 1009.79 1009.77 1009.80 1009.92 1010.11 1010.36 1010.63 1010.87 1011.05 1011.14 1011.11 1010.98 1010.76 1010.47 1010.16 1009.84 1009.54 1009.26 1008.99 1008.73 1008.45 1008.15 1007.81 1007.44
1004.84 1005.00 1005.04 1004.98 1004.86 1004.74 1004.69 1004.76 1005.00 1005.41 1005.98 1006.67 1007.43 1008.18 1008.85 1009.41 1009.82 1010.07 1010.20 1010.23 1010.22 1010.22 1010.25 1010.35 1010.50 1010.69 1010.88 1011.05 1011.14 1011.15 1011.05 1010.86 1010.60 1010.28 1009.94 1009.59 1009.26 1008.94 1008.61 1008.28 1007.91 1007.51 1007.07 1006.61
1005.15 1005.30 1005.34 1005.31 1005.24 1005.18 1005.19 1005.30 1005.56 1005.97 1006.51 1007.16 1007.85 1008.54 1009.16 1009.67 1010.06 1010.31 1010.44 1010.50 1010.51 1010.53 1010.56 1010.64 1010.75 1010.88 1011.00 1011.08 1011.09 1011.02 1010.87 1010.63 1010.34 1010.00 1009.65 1009.29 1008.93 1008.57 1008.20 1007.79 1007.35 1006.86 1006.33 1005.79
1005.53 1005.66 1005.73 1005.74 1005.73 1005.74 1005.80 1005.96 1006.22 1006.61 1007.11 1007.68 1008.29 1008.88 1009.42 1009.86 1010.20 1010.43 1010.57 1010.64 1010.67 1010.70 1010.73 1010.79 1010.86 1010.93 1010.98 1010.98 1010.92 1010.79 1010.58 1010.32 1010.00 1009.66 1009.30 1008.94 1008.57 1008.18 1007.76 1007.31 1006.80 1006.25 1005.65 1005.05
1005.94 1006.08 1006.17 1006.23 1006.29 1006.36 1006.48 1006.66 1006.93 1007.29 1007.72 1008.20 1008.71 1009.19 1009.63 1010.00 1010.29 1010.49 1010.62 1010.70 1010.74 1010.77 1010.80 1010.83 1010.86 1010.88 1010.86 1010.79 1010.67 1010.48 1010.24 1009.95 1009.63 1009.28 1008.93 1008.56 1008.18 1007.78 1007.34 1006.84 1006.30 1005.70 1005.07 1004.43
1006.38 1006.53 1006.65 1006.76 1006.87 1007.00 1007.16 1007.37 1007.64 1007.96 1008.32 1008.72 1009.12 1009.50 1009.85 1010.14 1010.37 1010.54 1010.66 1010.73 1010.78 1010.81 1010.83 1010.84 1010.82 1010.79 1010.71 1010.58 1010.40 1010.17 1009.89 1009.58 1009.25 1008.91 1008.55 1008.19 1007.80 1007.39 1006.93 1006.41 1005.84 1005.22 1004.58 1003.94
1006.86 1007.01 1007.16 1007.31 1007.47 1007.65 1007.85 1008.07 1008.33 1008.61 1008.92 1009.23 1009.54 1009.83 1010.09 1010.32 1010.50 1010.64 1010.74 1010.82 1010.86 1010.89 1010.89 1010.87 1010.81 1010.72 1010.58 1010.39 1010.16 1009.89 1009.58 1009.25 1008.91 1008.56 1008.20 1007.83 1007.44 1007.01 1006.54 1006.01 1005.43 1004.82 1004.18 1003.56
1007.37 1007.53 1007.70 1007.88 1008.08 1008.28 1008.51 1008.74 1008.98 1009.23 1009.49 1009.73 1009.97 1010.19 1010.39 1010.56 1010.71 1010.83 1010.92 1010.99 1011.03 1011.05 1011.03 1010.97 1010.87 1010.73 1010.53 1010.28 1009.99 1009.67 1009.33 1008.97 1008.61 1008.24 1007.87 1007.49 1007.08 1006.64 1006.16 1005.63 1005.06 1004.45 1003.84 1003.25
1007.92 1008.08 1008.26 1008.45 1008.67 1008.89 1009.12 1009.36 1009.59 1009.81 1010.02 1010.22 1010.40 1010.57 1010.73 1010.87 1011.00 1011.11 1011.20 1011.26 1011.30 1011.30 1011.26 1011.17 1011.02 1010.82 1010.56 1010.25 1009.91 1009.53 1009.14 1008.75 1008.36 1007.96 1007.57 1007.16 1006.74 1006.28 1005.79 1005.25 1004.69 1004.10 1003.52 1002.96
1008.48 1008.62 1008.80 1009.00 1009.22 1009.45 1009.68 1009.90 1010.12 1010.31 1010.49 1010.66 1010.81 1010.95 1011.08 1011.21 1011.33 1011.44 1011.54 1011.60 1011.64 1011.63 1011.56 1011.43 1011.23 1010.97 1010.65 1010.29 1009.88 1009.45 1009.01 1008.57 1008.13 1007.70 1007.27 1006.84 1006.39 1005.92 1005.41 1004.88 1004.33 1003.77 1003.21 1002.69
1008.99 1009.13 1009.29 1009.48 1009.69 1009.91 1010.14 1010.35 1010.54 1010.72 1010.88 1011.03 1011.16 1011.29 1011.42 1011.55 1011.67 1011.79 1011.90 1011.97 1012.00 1011.97 1011.88 1011.72 1011.47 1011.16 1010.78 1010.35 1009.89 1009.40 1008.90 1008.41 1007.93 1007.46 1006.99 1006.53 1006.06 1005.57 1005.06 1004.53 1003.99 1003.45 1002.93 1002.44
1009.43 1009.55 1009.70 1009.87 1010.07 1010.28 1010.49 1010.69 1010.87 1011.03 1011.17 1011.31 1011.44 1011.57 1011.70 1011.84 1011.98 1012.12 1012.23 1012.31 1012.34 1012.30 1012.18 1011.99 1011.71 1011.34 1010.91 1010.43 1009.91 1009.37 1008.82 1008.28 1007.75 1007.24 1006.74 1006.25 1005.76 1005.26 1004.75 1004.24 1003.71 1003.20 1002.71 1002.25
1009.77 1009.87 1010.01 1010.17 1010.36 1010.55 1010.74 1010.93 1011.09 1011.24 1011.38 1011.51 1011.64 1011.78 1011.93 1012.08 1012.24 1012.38 1012.51 1012.59 1012.62 1012.57 1012.44 1012.21 1011.90 1011.50 1011.03 1010.50 1009.94 1009.35 1008.76 1008.18 1007.62 1007.08 1006.55 1006.04 1005.54 1005.04 1004.54 1004.04 1003.55 1003.06 1002.60 1002.17
1010.01 1010.11 1010.24 1010.40 1010.57 1010.75 1010.93 1011.10 1011.26 1011.41 1011.54 1011.67 1011.81 1011.95 1012.10 1012.27 1012.43 1012.59 1012.72 1012.80 1012.83 1012.77 1012.63 1012.39 1012.05 1011.63 1011.13 1010.57 1009.98 1009.36 1008.75 1008.14 1007.55 1006.99 1006.45 1005.94 1005.44 1004.95 1004.47 1003.99 1003.53 1003.08 1002.65 1002.25
1010.20 1010.31 1010.44 1010.59 1010.76 1010.94 1011.11 1011.28 1011.43 1011.57 1011.70 1011.83 1011.97 1012.11 1012.27 1012.43 1012.60 1012.76 1012.88 1012.96 1012.98 1012.92 1012.76 1012.52 1012.17 1011.74 1011.23 1010.66 1010.05 1009.43 1008.80 1008.18 1007.58 1007.01 1006.47 1005.96 1005.48 1005.01 1004.56 1004.12 1003.69 1003.28 1002.88 1002.51
1010.41 1010.52 1010.66 1010.82 1011.00 1011.17 1011.35 1011.51 1011.66 1011.80 1011.93 1012.05 1012.18 1012.32 1012.47 1012.62 1012.77 1012.91 1013.02 1013.09 1013.10 1013.02 1012.86 1012.61 1012.27 1011.84 1011.34 1010.78 1010.17 1009.55 1008.93 1008.31 1007.72 1007.15 1006.62 1006.13 1005.66 1005.22 1004.80 1004.40 1004.02 1003.65 1003.29 1002.94
1010.68 1010.81 1010.96 1011.13 1011.32 1011.50 1011.67 1011.84 1011.99 1012.12 1012.25 1012.37 1012.48 1012.60 1012.73 1012.85 1012.98 1013.08 1013.17 1013.21 1013.19 1013.11 1012.94 1012.69 1012.36 1011.94 1011.46 1010.92 1010.34 1009.73 1009.12 1008.53 1007.95 1007.40 1006.88 1006.41 1005.97 1005.56 1005.17 1004.81 1004.47 1004.14 1003.81 1003.49
1011.06 1011.20 1011.37 1011.55 1011.74 1011.92 1012.11 1012.27 1012.42 1012.56 1012.67 1012.78 1012.87 1012.96 1013.05 1013.14 1013.22 1013.28 1013.32 1013.33 1013.28 1013.18 1013.00 1012.75 1012.43 1012.04 1011.58 1011.07 1010.53 1009.95 1009.38 1008.80 1008.25 1007.72 1007.22 1006.77 1006.35 1005.97 1005.62 1005.29 1004.98 1004.68 1004.39 1004.10
1011.53 1011.68 1011.86 1012.04 1012.24 1012.43 1012.62 1012.79 1012.94 1013.07 1013.17 1013.26 1013.33 1013.38 1013.43 1013.46 1013.49 1013.50 1013.48 1013.44 1013.36 1013.23 1013.04 1012.79 1012.48 1012.12 1011.69 1011.22 1010.72 1010.19 1009.64 1009.10 1008.58 1008.07 1007.60 1007.17 1006.77 1006.41 1006.08 1005.78 1005.50 1005.22 1004.95 1004.68
1012.06 1012.21 1012.39 1012.57 1012.77 1012.97 1013.15 1013.33 1013.48 1013.60 1013.70 1013.77 1013.81 1013.83 1013.82 1013.80 1013.77 1013.71 1013.64 1013.54 1013.41 1013.25 1013.04 1012.80 1012.50 1012.16 1011.77 1011.35 1010.89 1010.40 1009.91 1009.40 1008.91 1008.43 1007.98 1007.57 1007.18 1006.83 1006.52 1006.23 1005.97 1005.71 1005.46 1005.19
1012.58 1012.73 1012.89 1013.07 1013.26 1013.46 1013.65 1013.83 1013.98 1014.11 1014.20 1014.25 1014.27 1014.25 1014.20 1014.13 1014.03 1013.92 1013.78 1013.62 1013.45 1013.25 1013.03 1012.78 1012.49 1012.18 1011.83 1011.44 1011.03 1010.60 1010.15 1009.69 1009.23 1008.78 1008.36 1007.95 1007.58 1007.24 1006.93 1006.64 1006.38 1006.12 1005.87 1005.60
1013.04 1013.16 1013.31 1013.48 1013.67 1013.87 1014.06 1014.24 1014.41 1014.54 1014.63 1014.67 1014.67 1014.63 1014.55 1014.43 1014.28 1014.10 1013.91 1013.70 1013.48 1013.25 1013.00 1012.75 1012.47 1012.18 1011.86 1011.53 1011.16 1010.78 1010.38 1009.97 1009.55 1009.13 1008.72 1008.33 1007.96 1007.62 1007.30 1007.00 1006.72 1006.45 1006.19 1005.91
1013.38 1013.49 1013.62 1013.78 1013.96 1014.16 1014.36 1014.55 1014.73 1014.87 1014.97 1015.02 1015.02 1014.96 1014.85 1014.70 1014.51 1014.29 1014.05 1013.80 1013.54 1013.28 1013.01 1012.75 1012.48 1012.21 1011.93 1011.63 1011.31 1010.98 1010.63 1010.26 1009.88 1009.49 1009.10 1008.72 1008.35 1007.99 1007.65 1007.33 1007.03 1006.73 1006.43 1006.13
Thickness
5700 5708 5708 5705 5705 5705 5700 5698 5693 5698 5700 5707 5710 5712 5712 5712 5710 5708 5706 5704 5702 5700 5698 5696 5693 5690 5688 5685 5682 5679 5676 5672 5669 5666 5663 5659 5656 5652 5649 5645 5643 5639 5636 5633
5691 5700 5701 5698 5701 5702 5701 5700 5698 5699 5700 5711 5710 5708 5706 5705 5704 5702 5701 5700 5698 5697 5695 5693 5691 5688 5685 5682 5679 5676 5673 5670 5668 5664 5661 5657 5653 5650 5646 5642 5639 5636 5633 5629
5675 5688 5691 5682 5695 5696 5696 5698 5695 5692 5699 5702 5701 5701 5700 5698 5698 5697 5697 5696 5694 5693 5691 5689 5687 5685 5682 5679 5676 5673 5670 5668 5665 5662 5658 5655 5651 5647 5643 5639 5636 5633 5630 5626
5664 5674 5666 5682 5699 5698 5693 5693 5694 5696 5696 5698 5698 5698 5697 5696 5694 5693 5693 5692 5691 5689 5688 5686 5684 5682 5679 5677 5674 5671 5668 5665 5662 5659 5655 5652 5648 5644 5640 5637 5633 5630 5627 5623
5653 5656 5664 5680 5689 5688 5684 5684 5690 5689 5690 5690 5691 5690 5689 5692 5691 5690 5690 5689 5688 5686 5684 5682 5680 5678 5676 5673 5671 5668 5665 5662 5659 5656 5652 5648 5645 5641 5638 5634 5631 5627 5624 5621
5649 5651 5651 5668 5684 5690 5684 5674 5684 5683 5682 5681 5682 5673 5677 5684 5685 5684 5684 5684 5682 5681 5679 5677 5675 5673 5670 5668 5666 5664 5662 5659 5656 5653 5649 5646 5642 5639 5635 5632 5628 5625 5622 5619
5643 5644 5651 5667 5677 5681 5664 5665 5677 5677 5676 5675 5672 5672 5675 5677 5676 5677 5676 5676 5675 5674 5673 5671 5670 5668 5665 5662 5661 5661 5659 5656 5653 5650 5647 5643 5639 5636 5633 5629 5626 5623 5620 5617
5633 5635 5642 5662 5664 5660 5659 5667 5669 5669 5669 5667 5666 5667 5668 5668 5667 5668 5668 5668 5667 5666 5665 5664 5663 5662 5660 5658 5658 5655 5653 5651 5648 5645 5643 5641 5636 5633 5630 5626 5623 5620 5617 5614
5631 5634 5645 5651 5654 5657 5658 5658 5660 5661 5661 5661 5659 5659 5660 5659 5659 5659 5660 5659 5659 5658 5657 5656 5656 5655 5653 5654 5653 5649 5647 5645 5642 5640 5638 5636 5633 5630 5626 5623 5621 5618 5615 5613
5626 5633 5640 5644 5648 5650 5652 5652 5654 5654 5654 5654 5652 5652 5651 5650 5650 5651 5651 5651 5651 5651 5650 5649 5649 5649 5648 5648 5647 5644 5641 5639 5637 5635 5633 5631 5629 5627 5624 5621 5619 5617 5614 5611
5618 5625 5631 5636 5639 5641 5644 5645 5645 5646 5646 5646 5645 5644 5643 5642 5642 5642 5642 5642 5642 5642 5642 5642 5642 5642 5642 5641 5640 5638 5636 5634 5632 5630 5629 5627 5625 5624 5623 5621 5619 5616 5613 5610
5610 5616 5616 5623 5630 5633 5634 5635 5636 5637 5637 5637 5637 5636 5636 5634 5634 5634 5634 5634 5634 5634 5634 5634 5635 5636 5636 5635 5634 5633 5631 5629 5628 5626 5624 5623 5621 5620 5620 5618 5616 5614 5612 5609
5606 5611 5613 5618 5621 5625 5625 5627 5628 5629 5629 5628 5629 5629 5629 5627 5626 5626 5626 5627 5627 5628 5628 5628 5628 5629 5631 5630 5628 5627 5626 5625 5624 5622 5621 5619 5617 5617 5615 5614 5613 5611 5609 5608
5601 5604 5605 5608 5611 5615 5616 5617 5619 5620 5621 5621 5621 5620 5620 5619 5619 5619 5619 5620 5621 5621 5621 5622 5622 5624 5625 5624 5623 5622 5622 5621 5620 5619 5618 5616 5615 5614 5613 5611 5610 5609 5607 5605
5593 5595 5596 5600 5602 5605 5606 5607 5608 5609 5610 5611 5611 5611 5611 5611 5611 5611 5612 5613 5613 5613 5614 5615 5616 5617 5619 5619 5618 5618 5617 5617 5616 5615 5614 5613 5612 5611 5610 5609 5608 5607 5605 5603
5582 5587 5590 5592 5593 5595 5597 5598 5598 5599 5600 5601 5602 5602 5603 5603 5604 5604 5604 5605 5605 5606 5607 5608 5610 5612 5613 5613 5613 5613 5613 5612 5612 5612 5611 5610 5609 5608 5607 5606 5605 5604 5603 5602
5571 5574 5578 5581 5583 5586 5588 5589 5591 5591 5592 5593 5594 5595 5596 5596 5596 5596 5597 5599 5599 5600 5601 5602 5604 5607 5608 5608 5608 5608 5608 5608 5607 5607 5607 5607 5605 5604 5604 5603 5602 5602 5602 5601
5564 5567 5569 5572 5575 5577 5580 5583 5584 5585 5586 5587 5588 5588 5588 5588 5588 5589 5590 5591 5593 5594 5596 5598 5600 5601 5602 5602 5602 5602 5603 5603 5602 5602 5602 5602 5601 5601 5600 5600 5599 5599 5599 5598
5558 5561 5564 5567 5569 5570 5573 5575 5577 5577 5579 5580 5580 5580 5581 5582 5582 5583 5583 5584 5585 5587 5590 5593 5594 5596 5596 5597 5597 5596 5597 5597 5597 5597 5597 5596 5596 5596 5596 5595 5596 5596 5596 5595
5551 5554 5557 5560 5562 5563 5564 5566 5569 5570 5571 5572 5572 5573 5574 5575 5575 5576 5576 5577 5580 5582 5585 5586 5588 5589 5590 5591 5591 5591 5591 5591 5591 5592 5591 5591 5592 5592 5591 5591 5592 5591 5591 5591
5543 5546 5549 5551 5553 5556 5556 5557 5559 5560 5562 5563 5564 5565 5567 5568 5569 5569 5570 5572 5575 5577 5578 5579 5581 5583 5584 5585 5585 5586 5586 5586 5586 5586 5586 5587 5587 5587 5587 5587 5587 5587 5588 5588
5535 5538 5540 5542 5544 5546 5548 5549 5550 5552 5553 5554 5556 5558 5559 5560 5561 5562 5564 5566 5569 5570 5571 5573 5574 5576 5577 5578 5579 5580 5580 5581 5580 5580 5581 5581 5582 5582 5583 5583 5583 5584 5584 5585
5526 5529 5531 5533 5535 5536 5538 5540 5542 5544 5545 5547 5548 5549 5550 5552 5554 5555 5557 5560 5562 5563 5565 5567 5568 5569 5570 5572 5574 5574 5575 5575 5576 5576 5576 5576 5577 5578 5578 5579 5580 5581 5581 5581
5519 5522 5523 5525 5526 5528 5530 5532 5533 5535 5537 5539 5541 5542 5543 5545 5547 5549 5550 5552 5554 5556 5559 5560 5561 5562 5563 5566 5568 5569 5569 5570 5571 5571 5571 5572 5572 5573 5574 5575 5576 5577 5577 5578
5512 5514 5516 5517 5518 5520 5521 5523 5525 5527 5529 5531 5533 5535 5537 5538 5539 5542 5544 5546 5547 5549 5552 5554 5555 5556 5558 5560 5562 5563 5564 5565 5565 5566 5566 5567 5568 5569 5570 5571 5572 5573 5573 5574
5505 5507 5509 5510 5512 5513 5514 5516 5518 5520 5521 5523 5525 5527 5530 5531 5533 5535 5537 5539 5541 5543 5545 5547 5549 5551 5552 5554 5556 5557 5558 5559 5560 5560 5561 5562 5564 5565 5566 5567 5568 5568 5569 5570
5499 5501 5503 5505 5507 5508 5510 5511 5512 5514 5515 5516 5518 5520 5522 5524 5526 5528 5530 5533 5535 5537 5539 5541 5543 5544 5546 5547 5548 5550 5552 5553 5554 5555 5556 5557 5558 5560 5561 5562 5563 5563 5564 5565